Regional Weather Roundup
Issued by NWS

Home | Current Version | Previous Version | Graphics & Text | Print | Product List | Glossary On
Versions: 1 2 3 4 5 6 7 8 9 10 11 12 13 14 15 16 17 18 19 20 21 22 23 24 25 26 27 28 29 30 31 32 33 34 35 36 37 38 39 40 41 42 43 44 45 46 47 48 49 50
000
ASUS43 KDTX 250610
RWRMI
MICHIGAN HOURLY REGIONAL WEATHER ROUNDUP
NATIONAL WEATHER SERVICE DETROIT/PONTIAC MI
100 AM EST THU DEC 25 2014

NOTE: "FAIR" INDICATES FEW OR NO CLOUDS BELOW 12,000 FEET WITH NO
SIGNIFICANT WEATHER AND/OR OBSTRUCTION TO VISIBILITY.

MIZ047>049-052>055-059>063-066>070-074>076-081>083-250700-
SOUTHEAST LOWER MICHIGAN

CITY           SKY/WX    TMP DP  RH WIND       PRES   REMARKS
ADRIAN         CLOUDY    37  34  89 W14G23    29.57R WCI  28
6HR MIN TEMP:  35; 6HR MAX TEMP:  39; 6HR PCP: TRACE;

ALMA           CLOUDY    34  34 100 W10       29.46R WCI  26
ANN ARBOR      CLOUDY    37  34  89 W15G23    29.52R WCI  28
BAD AXE        LGT SNOW  33  33 100 W18G28    29.37R WCI  22
6HR MIN TEMP:  32; 6HR MAX TEMP:  38;

CARO           LGT SNOW  33  32  96 W15       29.41R WCI  23
DETROIT CITY   CLOUDY    40  33  76 W18G28    29.49R WCI  31
6HR MIN TEMP:  38; 6HR MAX TEMP:  45; 6HR PCP:  0.02;

DETROIT        CLOUDY    38  34  85 SW20      29.53R WCI  28
6HR MIN TEMP:  37; 6HR MAX TEMP:  41; 6HR PCP:  0.03;

FLINT          MIX PCPN  36  32  85 SW15      29.46R WCI  27
6HR MIN TEMP:  35; 6HR MAX TEMP:  40; 6HR PCP:  0.24;

GROSSE ILE     CLOUDY    39  36  87 SW16G24   29.52R WCI  30
HILLSDALE      CLOUDY    36  36 100 SW14G20   29.55R FOG     WCI  27
6HR MIN TEMP:  34; 6HR MAX TEMP:  36;

HOWELL         CLOUDY    33  33 100 SW13      29.49R WCI  24
6HR MIN TEMP:  32; 6HR MAX TEMP:  38;


CITY           SKY/WX    TMP DP  RH WIND       PRES   REMARKS
JACKSON        CLOUDY    35  33  92 SW9G21    29.52R WCI  28
6HR MIN TEMP:  33; 6HR MAX TEMP:  35; 6HR PCP:  0.09;

LAMBERTVILLE   CLOUDY    37  34  87 SW12G22   29.57R WCI  30
LANSING        FLURRIES  35  33  92 SW13      29.50R WCI  26
6HR MIN TEMP:  33; 6HR MAX TEMP:  35; 6HR PCP:  0.19;

LAPEER         LGT RAIN  33  33  98 W13G21    29.43R WCI  24
MASON          CLOUDY    33  32  96 SW10G16   29.51R WCI  25
MONROE         CLOUDY    37  36  93 SW17G25   29.53R WCI  28
MT. CLEMENS    CLOUDY    37 N/A N/A SW18G24   29.45R WCI  27
6HR MIN TEMP:  35; 6HR MAX TEMP:  42; 6HR PCP:  0.08;

PONTIAC        LGT RAIN  34  33  96 SW12G21   29.47R WCI  25
6HR MIN TEMP:  33; 6HR MAX TEMP:  38; 6HR PCP:  0.09;

PORT HOPE        N/A     34  32  92 W10G26    29.31R WCI  26
6HR MIN TEMP:  33; 6HR MAX TEMP:  38; 6HR PCP:  0.58;

PORT HURON     CLOUDY    36  36 100 SW8G18    29.44R WCI  29
TRI CITIES     CLOUDY    35  32  88 W14       29.43R WCI  26
6HR MIN TEMP:  34; 6HR MAX TEMP:  37; 6HR PCP:  0.22;

TROY           CLOUDY    38  35  87 SW13      29.50R WCI  30
SAGINAW HB     FLURRIES  34  34 100 SW14G21   29.43R WCI  24
$$
MIZ043>046-050>051-056>058-064>065-071>073-077>080-250700-
SOUTHWEST LOWER MICHIGAN

CITY           SKY/WX    TMP DP  RH WIND       PRES   REMARKS
BATTLE CREEK   LGT RAIN  36  33  89 W12       29.54R WCI  28
6HR MIN TEMP:  34; 6HR MAX TEMP:  36; 6HR PCP:  0.12;

BENTON HARBOR  CLOUDY    37  34  89 W21G26    29.59R WCI  26
6HR MIN TEMP:  35; 6HR MAX TEMP:  37; 6HR PCP:  0.06;

BIG RAPIDS     LGT SNOW  34  34 100 W13       29.45R WCI  25
6HR MIN TEMP:  33; 6HR MAX TEMP:  35;

COLDWATER      LGT SNOW  36  35  96 MISG      29.56R
6HR MIN TEMP:  33; 6HR MAX TEMP:  36;

FREMONT        CLOUDY    35  34  98 W8        29.50R WCI  28
6HR MIN TEMP:  33; 6HR MAX TEMP:  36;

HOLLAND        LGT RAIN  39  34  82 W13G24    29.55R WCI  31
6HR MIN TEMP:  38; 6HR MAX TEMP:  40; 6HR PCP:  0.12;

GRAND RAPIDS   CLOUDY    37  34  89 W17G23    29.51R WCI  27
6HR MIN TEMP:  33; 6HR MAX TEMP:  37; 6HR PCP:  0.15;

IONIA          CLOUDY    36  35  96 W16G24    29.48R WCI  26
KALAMAZOO      LGT RAIN  36  34  92 W9        29.56R FOG     WCI  29
6HR MIN TEMP:  34; 6HR MAX TEMP:  37; 6HR PCP:  0.10;

LUDINGTON      CLOUDY    36  32  87 W10G18    29.50R WCI  28
MARSHALL       LGT SNOW  33  32  96 SW10G16   29.54R WCI  25
MOUNT PLEASANT CLOUDY    35  34  98 W10       29.43R WCI  27
6HR MIN TEMP:  33; 6HR MAX TEMP:  35; 6HR PCP:  0.04;

MUSKEGON       LGT RAIN  37  33  85 W13G22    29.53R WCI  29
6HR MIN TEMP:  37; 6HR MAX TEMP:  39; 6HR PCP:  0.13;

SOUTH HAVEN    CLOUDY    39  34  84 W13G20    29.57R WCI  31
$$
MIZ016>042-250700-
NORTHERN LOWER MICHIGAN

CITY           SKY/WX    TMP DP  RH WIND       PRES   REMARKS
ALPENA         LGT SNOW  33  32  96 W8        29.28R FOG     WCI  26
6HR MIN TEMP:  33; 6HR MAX TEMP:  35; 6HR PCP:  0.21;

BEAVER ISLAND  CLOUDY    33  32  95 W7        29.37R WCI  27
6HR MIN TEMP:  33; 6HR MAX TEMP:  34;

BELLAIRE       CLOUDY    35  32  90 W7        29.40R WCI  29
6HR MIN TEMP:  35; 6HR MAX TEMP:  36;

CADILLAC       CLOUDY    32  31  98 W14G26    29.40R WCI  22
CHARLEVOIX     CLOUDY    34  33  96 W18G26    29.40R WCI  23
6HR MIN TEMP:  34; 6HR MAX TEMP:  36;

FRANKFORT      CLOUDY    34  32  92 NW12      29.45R WCI  25
GAYLORD        LGT SNOW  32  31  96 W15       29.32R VSB 1   WCI  22
6HR MIN TEMP:  32; 6HR MAX TEMP:  33; 6HR PCP:  0.03;

GRAYLING       LGT SNOW  33  33 100 W14G23    29.36R WCI  23
6HR MIN TEMP:  33; 6HR MAX TEMP:  33;

HARBOR SPRINGS CLOUDY    33  32  94 W7G20     29.34R WCI  27
HOUGHTON LAKE  CLOUDY    33  31  92 W14       29.37R WCI  23
6HR MIN TEMP:  32; 6HR MAX TEMP:  33; 6HR PCP:  0.12;

MANISTEE       CLOUDY    36  30  80 NW12      29.48R WCI  27
OSCODA         FLURRIES  33  33  99 W14       29.30R WCI  23
PELLSTON       CLOUDY    34  32  92 W18G26    29.33R WCI  23
6HR MIN TEMP:  33; 6HR MAX TEMP:  34; 6HR PCP: TRACE;

ROGERS CITY    LGT SNOW  34  34 100 W10G18    29.27R WCI  26
TRAVERSE CITY  CLOUDY    35  31  85 W15       29.42R WCI  25
6HR MIN TEMP:  35; 6HR MAX TEMP:  37; 6HR PCP:  0.02;

$$
MIZ007>008-015-250700-
EASTERN UPPER MICHIGAN

CITY           SKY/WX    TMP DP  RH WIND       PRES   REMARKS
KINROSS        CLOUDY    34  34 100 NW20G25   29.26R WCI  22
6HR MIN TEMP:  34; 6HR MAX TEMP:  36; 6HR PCP:  0.01;

MACKINAC ISLAN CLOUDY    34  34 100 NW15G23   29.29R WCI  24
6HR MIN TEMP:  34; 6HR MAX TEMP:  34;

NEWBERRY       CLOUDY    32  32 100 W13G21    29.32S WCI  22
6HR MIN TEMP:  32; 6HR MAX TEMP:  33;

S. S. MARIE    CLOUDY    34  33  96 NW14      29.25R WCI  25
6HR MIN TEMP:  34; 6HR MAX TEMP:  35; 6HR PCP:  0.01;

MUNISING         N/A     36  29  75 N15       29.39R WCI  27
6HR MIN TEMP:  35; 6HR MAX TEMP:  36;

$$
MIZ004>006-011>014-085-250700-
CENTRAL UPPER MICHIGAN

CITY           SKY/WX    TMP DP  RH WIND       PRES   REMARKS
MANISTIQUE     CLOUDY    32  32 100 NW12G17   29.37R WCI  23
6HR MIN TEMP:  32; 6HR MAX TEMP:  33;

ESCANABA       CLOUDY    32  27  80 W10       29.43R WCI  24
6HR MIN TEMP:  32; 6HR MAX TEMP:  34;

MENOMINEE      CLOUDY    34  28  80 W8        29.48R WCI  27
6HR MIN TEMP:  32; 6HR MAX TEMP:  34;

SAWYER-GWINN   CLOUDY    31  28  89 NW8       29.40S WCI  24
$$
MIZ001>003-009>011-084-250700-
WESTERN UPPER MICHIGAN

CITY           SKY/WX    TMP DP  RH WIND       PRES   REMARKS
IRON MOUNTAIN  CLOUDY    32  27  81 W9        29.45R WCI  24
6HR MIN TEMP:  31; 6HR MAX TEMP:  32;

HOUGHTON       LGT SNOW  31  28  89 NW12      29.43R FOG     WCI  22
6HR MIN TEMP:  31; 6HR MAX TEMP:  32; 6HR PCP: TRACE;

COPPER HARBOR    N/A     34  28  79 N15       29.42S WCI  24
6HR MIN TEMP:  33; 6HR MAX TEMP:  35;

IRONWOOD       CLOUDY    30  30 100 W10       29.46S WCI  21
6HR MIN TEMP:  30; 6HR MAX TEMP:  30;

$$

ABBREVIATIONS USED IN REMARKS
   TC - TEMPERATURE IN CELSIUS
  WCI - WIND CHILL INDEX
   HX - HEAT INDEX
  VSB - VISIBILITY




USA.gov is the U.S. government's official web portal to all federal, state and local government web resources and services.